map of CGH home
Great Circle Mapper logo
CGH - Airport
Location
City:  São Paulo, São Paulo, Brazil
Name:Congonhas International Airport
ICAO / IATA:SBSP / CGH

Details
Type:Airport (Aerodrome, Airfield)
Use:Public/Civil, International (customs port of entry)
Latitude:23°37'36"S (-23.626691)
Longitude:46°39'19"W (-46.655374)
Datum:WGS 1984
Elevation:2631 ft (802 m)
Variation:20.9°W (WMM2015 magnetic declination)
Runways:2
Longest:6365 × 147 ft (1940 × 45 m), paved

Time
Time Zone:UTC-3 (DST-2)
Local Time:

Weather
METAR:SBSP 190200Z 13005KT CAVOK 20/15 Q1016
TAF:SBSP 190100Z 1906/2006 17005KT CAVOK TN20/1907Z TX27/1917Z
BECMG 1910/1912 15005KT FEW030
BECMG 1913/1915 BKN040 PROB40
TEMPO 1916/1923 TSRA BKN030 FEW040CB
BECMG 2000/2002 17005KT BKN015
RMK PGQ

Related Locations
Nearby:
Farthest:MMD: 12235 mi / 19691 km
Minami Daito Jima, Okinawa, JP

Find:

   beyond  
but within

Other Information
Maps:
NOTAMs:
Links:
Sources:

  
flag of Brazil
flag of São Paulo
flag of São Paulo
  

Sectional Chart

Flight Planning
at skyvector.com

Satellite Image

Google Maps Satellite View

 

Copyright © 2004-2014 Karl L. Swartz. All rights reserved.
The Great Circle Mapper name and logo are trademarks of the Great Circle Mapper.
All other trademarks mentioned herein belong to their respective owners.
Please see credits for attibutions and further copyright information.

  Follow gcmap on Facebook Follow gcmap on Twitter

hCard Microformat

Geo Microformat